Date,Time,Brisbane CBD (South East Queensland) (Mm^-1),Flinders View (South East Queensland) (Mm^-1),Mountain Creek (South East Queensland) (Mm^-1),Rocklea (South East Queensland) (Mm^-1),Boat Creek (Gladstone) (Mm^-1),Boyne Island (Gladstone) (Mm^-1),Clinton (Gladstone) (Mm^-1),Fisherman's Landing (Gladstone) (Mm^-1),South Gladstone (Gladstone) (Mm^-1),Targinie (Gladstone) (Mm^-1),West Mackay (Mackay) (Mm^-1),North Ward (Townsville) (Mm^-1)
01/01/2017,00:00,,,,,,,,,,,,
01/01/2017,01:00,14,15,9,19,9,16,9,9,9,7,4,
01/01/2017,02:00,13,18,10,17,9,18,10,10,9,9,5,
01/01/2017,03:00,13,18,12,16,9,21,9,11,9,10,5,
01/01/2017,04:00,11,19,18,17,9,24,10,13,9,10,6,
01/01/2017,05:00,13,21,18,18,9,25,9,17,29,9,5,
01/01/2017,06:00,15,22,20,18,9,26,9,13,10,9,5,
01/01/2017,07:00,10,14,16,14,8,22,8,9,8,8,5,
01/01/2017,08:00,9,14,14,10,8,17,8,10,8,6,3,
01/01/2017,09:00,9,11,13,9,9,15,8,12,9,7,2,
01/01/2017,10:00,9,13,14,9,7,16,7,9,7,7,2,
01/01/2017,11:00,14,13,15,11,6,17,6,7,5,6,1,
01/01/2017,12:00,17,15,17,14,5,16,5,7,5,4,2,
01/01/2017,13:00,13,14,22,14,5,16,4,11,5,3,4,
01/01/2017,14:00,14,14,24,13,4,15,5,7,5,3,3,
01/01/2017,15:00,20,14,28,18,5,14,5,6,6,4,3,
01/01/2017,16:00,25,18,29,21,6,16,6,8,6,4,4,
01/01/2017,17:00,28,20,29,22,5,15,7,6,7,5,4,
01/01/2017,18:00,29,20,30,23,6,13,6,6,6,5,3,
01/01/2017,19:00,27,20,30,21,6,18,7,7,9,5,4,
01/01/2017,20:00,25,21,29,21,10,25,10,11,9,7,4,
01/01/2017,21:00,25,20,28,20,7,28,7,10,7,8,3,
01/01/2017,22:00,25,19,24,20,6,31,6,8,6,7,4,
01/01/2017,23:00,22,20,23,19,5,32,6,7,6,6,5,
02/01/2017,00:00,,,,,,,,,,,,
02/01/2017,01:00,17,15,19,17,10,34,10,13,12,8,4,
02/01/2017,02:00,19,17,21,17,12,29,11,13,17,12,5,
02/01/2017,03:00,19,15,22,17,10,29,11,15,14,12,4,
02/01/2017,04:00,19,15,25,18,10,28,9,13,10,10,4,
02/01/2017,05:00,18,15,20,17,11,28,14,14,13,12,4,
02/01/2017,06:00,19,16,18,17,9,28,11,9,11,11,4,
02/01/2017,07:00,18,14,17,15,7,25,10,9,11,8,4,
02/01/2017,08:00,16,13,16,14,8,21,10,9,11,7,5,
02/01/2017,09:00,18,13,14,15,9,20,9,14,10,8,4,
02/01/2017,10:00,18,11,14,17,10,31,8,12,10,6,3,
02/01/2017,11:00,15,11,14,15,8,24,10,8,11,8,2,
02/01/2017,12:00,13,14,15,14,7,23,7,7,8,5,2,
02/01/2017,13:00,11,15,14,12,6,24,6,8,8,6,4,
02/01/2017,14:00,12,13,16,10,5,24,7,7,9,5,6,
02/01/2017,15:00,15,13,19,14,6,25,6,7,9,6,6,
02/01/2017,16:00,16,13,19,14,7,25,7,9,9,7,4,
02/01/2017,17:00,19,13,21,16,7,23,8,8,11,7,4,
02/01/2017,18:00,20,14,21,16,7,24,7,8,12,9,3,
02/01/2017,19:00,22,8,22,16,6,24,7,9,9,8,3,
02/01/2017,20:00,15,4,21,8,6,23,9,7,9,8,3,
02/01/2017,21:00,7,3,20,4,6,23,9,8,11,6,42,
02/01/2017,22:00,3,3,19,4,5,22,8,7,9,6,27,
02/01/2017,23:00,3,3,20,3,4,21,6,6,12,6,14,
03/01/2017,00:00,,,,,,,,,,,,
03/01/2017,01:00,3,3,12,7,4,15,4,7,7,7,9,
03/01/2017,02:00,6,5,14,8,8,16,6,15,7,4,8,
03/01/2017,03:00,12,6,11,12,7,16,10,7,10,7,6,
03/01/2017,04:00,12,7,7,8,10,16,9,9,8,18,6,
03/01/2017,05:00,9,9,11,8,7,16,7,9,7,12,9,
03/01/2017,06:00,10,10,23,10,7,15,9,10,11,11,9,
03/01/2017,07:00,9,9,22,11,13,14,12,14,15,16,8,
03/01/2017,08:00,5,10,18,11,15,14,16,17,18,17,7,
03/01/2017,09:00,7,8,16,7,16,16,15,18,19,16,7,
03/01/2017,10:00,12,7,17,8,16,16,14,21,20,17,6,
03/01/2017,11:00,14,5,17,12,20,16,16,24,25,21,4,
03/01/2017,12:00,14,6,16,12,15,15,11,16,14,16,4,
03/01/2017,13:00,13,10,13,12,11,16,10,14,13,12,5,
03/01/2017,14:00,14,16,10,13,11,15,11,15,15,12,4,
03/01/2017,15:00,16,17,9,15,13,15,12,16,15,13,4,
03/01/2017,16:00,18,17,11,16,16,14,16,19,22,15,4,
03/01/2017,17:00,19,17,18,15,15,14,13,19,17,18,4,
03/01/2017,18:00,17,16,19,14,12,14,12,16,14,12,4,
03/01/2017,19:00,16,14,20,14,10,16,9,13,12,11,2,
03/01/2017,20:00,17,16,21,16,11,17,11,15,13,11,1,
03/01/2017,21:00,17,19,24,16,10,18,8,12,9,11,0,
03/01/2017,22:00,16,19,21,17,6,19,7,11,9,7,3,
03/01/2017,23:00,15,19,27,15,8,34,8,12,12,9,5,
04/01/2017,00:00,,,,,,,,,,,,
04/01/2017,01:00,15,13,21,15,15,14,12,14,14,12,2,
04/01/2017,02:00,16,14,21,11,15,16,13,17,14,15,2,
04/01/2017,03:00,18,14,22,13,14,45,12,16,13,15,3,
04/01/2017,04:00,20,10,22,15,13,16,13,16,14,14,2,
04/01/2017,05:00,19,6,22,11,14,23,12,17,14,15,2,
04/01/2017,06:00,19,7,22,14,13,18,10,14,12,14,3,
04/01/2017,07:00,17,12,22,16,12,14,12,15,14,13,2,
04/01/2017,08:00,16,13,18,14,17,13,16,20,20,18,8,
04/01/2017,09:00,15,13,19,13,17,15,16,24,22,19,4,
04/01/2017,10:00,13,11,20,13,18,15,16,23,23,20,2,
04/01/2017,11:00,15,11,21,13,19,15,16,23,21,20,9,
04/01/2017,12:00,12,12,20,12,15,17,13,19,16,17,10,
04/01/2017,13:00,11,12,19,11,17,20,16,19,21,15,11,
04/01/2017,14:00,11,10,19,12,17,19,15,23,21,19,11,
04/01/2017,15:00,10,12,19,11,19,20,15,26,21,22,13,
04/01/2017,16:00,13,13,25,13,18,12,15,23,22,22,15,
04/01/2017,17:00,14,13,25,12,18,11,16,24,22,21,10,
04/01/2017,18:00,15,13,23,15,18,6,16,24,22,21,5,
04/01/2017,19:00,18,12,27,16,18,4,15,21,19,19,5,
04/01/2017,20:00,20,13,27,18,16,2,15,20,19,17,5,
04/01/2017,21:00,21,14,29,18,17,2,15,25,19,18,4,
04/01/2017,22:00,21,15,30,19,15,1,12,21,16,17,3,
04/01/2017,23:00,19,14,27,18,11,1,10,12,12,11,2,
05/01/2017,00:00,,,,,,,,,,,,
05/01/2017,01:00,17,12,16,15,13,1,10,12,10,11,6,
05/01/2017,02:00,19,14,17,15,14,1,11,15,11,14,3,
05/01/2017,03:00,19,15,20,15,13,2,10,13,11,15,4,
05/01/2017,04:00,20,16,19,15,14,2,12,18,13,16,2,
05/01/2017,05:00,17,17,23,16,16,3,13,17,14,17,1,
05/01/2017,06:00,18,17,22,18,16,3,14,17,15,16,1,
05/01/2017,07:00,21,15,20,17,16,2,14,18,18,17,1,
05/01/2017,08:00,18,15,17,16,17,2,15,20,18,18,1,
05/01/2017,09:00,18,13,13,16,17,3,17,21,26,17,0,
05/01/2017,10:00,14,13,12,14,17,2,16,20,23,17,4,
05/01/2017,11:00,7,12,14,7,14,3,15,15,19,14,9,
05/01/2017,12:00,8,10,13,7,15,3,,16,19,13,10,
05/01/2017,13:00,8,7,14,7,19,4,,21,27,17,8,
05/01/2017,14:00,7,7,12,8,22,8,15,24,26,22,7,
05/01/2017,15:00,9,7,12,8,20,10,17,23,25,21,5,
05/01/2017,16:00,10,9,11,9,18,13,17,24,21,21,7,
05/01/2017,17:00,10,9,12,9,18,22,18,23,21,20,5,
05/01/2017,18:00,11,9,12,10,18,21,16,22,20,19,3,
05/01/2017,19:00,11,10,12,11,17,17,16,21,19,18,6,
05/01/2017,20:00,12,11,13,12,17,11,17,21,20,19,6,
05/01/2017,21:00,12,12,14,10,18,11,19,21,19,19,10,
05/01/2017,22:00,12,10,12,12,18,14,17,19,18,18,12,
05/01/2017,23:00,13,11,12,14,18,13,16,20,17,18,17,
06/01/2017,00:00,,,,,,,,,,,,
06/01/2017,01:00,9,9,8,11,16,6,12,16,14,15,16,
06/01/2017,02:00,13,8,7,8,15,6,13,19,15,17,10,
06/01/2017,03:00,24,6,11,6,14,6,13,17,14,16,11,
06/01/2017,04:00,25,6,14,4,14,7,12,16,13,16,16,
06/01/2017,05:00,7,7,15,4,15,7,12,16,17,15,14,
06/01/2017,06:00,8,6,15,5,15,6,14,16,15,15,10,
06/01/2017,07:00,10,6,14,9,15,4,14,17,17,16,10,
06/01/2017,08:00,10,8,13,9,16,3,15,19,21,17,9,
06/01/2017,09:00,10,8,13,8,15,5,13,18,17,17,12,
06/01/2017,10:00,9,8,10,8,13,9,11,18,17,16,14,
06/01/2017,11:00,10,8,11,9,15,13,13,19,17,16,15,
06/01/2017,12:00,10,8,10,,14,15,13,18,19,16,16,
06/01/2017,13:00,11,7,10,,12,17,10,15,18,14,15,
06/01/2017,14:00,13,11,10,10,15,13,14,19,19,17,14,
06/01/2017,15:00,13,10,11,10,17,10,17,22,25,19,15,
06/01/2017,16:00,10,8,12,10,20,10,17,23,24,21,16,
06/01/2017,17:00,10,9,13,9,19,9,16,23,22,21,16,
06/01/2017,18:00,10,10,13,9,17,9,15,22,20,21,20,
06/01/2017,19:00,12,10,14,10,19,7,17,23,23,20,8,
06/01/2017,20:00,13,11,14,11,20,7,18,25,22,22,16,
06/01/2017,21:00,13,10,16,11,18,9,16,21,19,20,14,
06/01/2017,22:00,10,9,16,10,17,9,15,19,19,18,9,
06/01/2017,23:00,8,7,17,8,16,9,13,19,17,17,9,
07/01/2017,00:00,,,,,,,,,,,,
07/01/2017,01:00,3,5,13,7,13,7,10,12,11,12,12,
07/01/2017,02:00,5,4,15,6,16,9,13,17,15,17,9,
07/01/2017,03:00,11,3,17,8,16,10,15,20,18,18,11,
07/01/2017,04:00,15,7,24,12,16,11,14,19,21,18,12,
07/01/2017,05:00,16,11,23,15,18,11,16,20,18,20,11,
07/01/2017,06:00,18,12,21,16,19,10,17,21,22,20,12,
07/01/2017,07:00,15,10,17,12,21,9,19,25,31,21,12,
07/01/2017,08:00,17,13,19,15,23,6,25,27,31,22,12,
07/01/2017,09:00,15,14,19,11,20,6,18,25,25,23,16,
07/01/2017,10:00,11,13,18,10,16,7,17,19,20,18,15,
07/01/2017,11:00,11,10,18,10,16,7,15,20,20,18,13,
07/01/2017,12:00,11,12,18,8,16,9,13,20,19,16,12,
07/01/2017,13:00,10,12,19,8,19,8,16,21,26,18,9,
07/01/2017,14:00,10,11,20,8,24,6,18,25,27,22,8,
07/01/2017,15:00,9,8,20,8,21,7,18,26,27,23,7,
07/01/2017,16:00,9,8,21,8,20,7,16,25,23,23,9,
07/01/2017,17:00,10,9,27,9,20,9,17,25,23,24,8,
07/01/2017,18:00,12,9,25,11,19,10,16,22,20,20,7,
07/01/2017,19:00,18,11,25,13,18,11,16,20,19,20,11,
07/01/2017,20:00,17,12,22,14,16,12,14,17,17,17,10,
07/01/2017,21:00,12,13,23,9,13,13,11,14,12,13,9,
07/01/2017,22:00,16,12,23,12,9,13,7,8,7,8,11,
07/01/2017,23:00,13,8,22,8,10,9,8,9,8,8,10,
08/01/2017,00:00,,,,,,,,,,,,
08/01/2017,01:00,8,6,13,8,9,16,6,8,5,7,19,
08/01/2017,02:00,10,8,17,8,5,24,4,4,3,4,18,
08/01/2017,03:00,10,9,16,8,3,24,3,3,3,2,18,
08/01/2017,04:00,11,9,17,8,4,25,4,4,4,5,14,
08/01/2017,05:00,11,9,17,8,7,24,7,7,7,8,16,
08/01/2017,06:00,13,11,16,10,9,24,8,9,8,9,18,
08/01/2017,07:00,16,14,16,14,13,25,13,15,13,13,20,
08/01/2017,08:00,16,16,16,14,16,22,12,18,19,16,18,
08/01/2017,09:00,12,14,13,13,19,21,17,22,22,19,16,
08/01/2017,10:00,11,13,11,10,20,17,18,22,23,19,15,
08/01/2017,11:00,10,12,11,9,19,20,17,20,18,19,13,
08/01/2017,12:00,11,10,11,9,20,22,16,21,18,17,16,
08/01/2017,13:00,11,9,11,10,20,23,15,20,19,16,14,
08/01/2017,14:00,11,10,13,10,21,28,16,22,22,18,15,
08/01/2017,15:00,9,10,14,8,22,29,15,23,21,19,20,
08/01/2017,16:00,9,10,11,9,23,33,17,24,25,20,21,
08/01/2017,17:00,11,11,12,10,21,37,17,22,25,20,20,
08/01/2017,18:00,11,10,16,11,24,37,20,26,,23,20,
08/01/2017,19:00,10,12,18,11,25,34,16,26,,26,19,
08/01/2017,20:00,12,13,17,13,25,30,23,26,26,25,18,
08/01/2017,21:00,13,14,17,12,25,28,23,28,27,26,18,
08/01/2017,22:00,14,13,18,14,25,28,23,27,25,25,18,
08/01/2017,23:00,15,14,17,18,25,25,25,29,25,24,14,
09/01/2017,00:00,,,,,,,,,,,,
09/01/2017,01:00,19,11,14,14,21,20,16,17,16,17,18,
09/01/2017,02:00,26,12,15,13,19,20,17,20,17,18,17,
09/01/2017,03:00,22,13,15,12,18,24,17,20,17,17,14,
09/01/2017,04:00,15,12,15,9,18,27,18,19,17,17,9,
09/01/2017,05:00,16,13,15,8,22,26,19,20,19,17,9,
09/01/2017,06:00,17,13,16,13,20,22,19,21,20,17,9,
09/01/2017,07:00,18,13,16,17,19,20,17,20,20,17,10,
09/01/2017,08:00,19,14,15,16,16,19,14,19,19,16,8,
09/01/2017,09:00,19,16,11,16,16,19,14,19,18,16,12,
09/01/2017,10:00,15,15,11,16,16,22,14,19,17,15,11,
09/01/2017,11:00,13,15,9,14,15,23,13,16,17,13,11,
09/01/2017,12:00,14,13,8,13,17,22,14,16,16,13,11,
09/01/2017,13:00,14,15,8,11,14,21,11,15,15,10,10,
09/01/2017,14:00,9,14,18,8,14,20,11,15,16,12,9,
09/01/2017,15:00,8,11,14,6,12,20,10,12,14,11,9,
09/01/2017,16:00,14,8,13,7,11,21,9,11,14,10,9,
09/01/2017,17:00,12,15,14,16,9,20,8,10,12,9,11,
09/01/2017,18:00,14,17,19,14,11,20,11,11,14,9,10,
09/01/2017,19:00,16,13,19,14,10,20,10,9,11,9,10,
09/01/2017,20:00,15,14,20,12,7,20,8,10,13,8,11,
09/01/2017,21:00,17,15,19,15,10,21,10,10,11,15,11,
09/01/2017,22:00,18,15,18,16,12,21,12,10,13,17,10,
09/01/2017,23:00,18,15,18,15,14,22,12,11,12,17,9,
10/01/2017,00:00,,,,,,,,,,,,
10/01/2017,01:00,16,13,16,15,18,17,16,15,20,18,9,
10/01/2017,02:00,18,14,20,15,19,20,19,20,21,19,8,
10/01/2017,03:00,19,14,19,15,20,20,19,18,18,19,8,
10/01/2017,04:00,20,15,17,14,21,19,19,21,20,18,8,
10/01/2017,05:00,20,16,16,8,21,19,17,21,19,22,6,
10/01/2017,06:00,25,17,17,19,21,18,18,20,19,33,6,
10/01/2017,07:00,21,19,20,17,21,16,18,21,21,19,8,
10/01/2017,08:00,17,17,16,13,18,14,18,19,21,18,8,
10/01/2017,09:00,16,16,16,13,17,13,16,18,20,16,9,
10/01/2017,10:00,19,13,16,15,18,15,19,20,22,16,11,
10/01/2017,11:00,22,14,15,20,19,15,18,19,20,13,14,
10/01/2017,12:00,19,15,15,20,19,17,15,18,18,15,18,
10/01/2017,13:00,16,16,16,17,18,15,15,16,18,14,16,
10/01/2017,14:00,13,19,15,16,17,13,15,17,17,14,17,
10/01/2017,15:00,14,20,14,15,16,12,14,16,17,14,15,
10/01/2017,16:00,15,21,13,15,16,13,14,15,16,14,15,
10/01/2017,17:00,15,19,14,14,15,13,14,16,16,13,14,
10/01/2017,18:00,15,17,14,13,15,14,15,16,16,14,13,
10/01/2017,19:00,16,14,14,14,15,15,16,17,18,15,14,
10/01/2017,20:00,15,14,14,14,16,15,17,17,18,16,14,
10/01/2017,21:00,15,14,15,13,16,15,17,21,16,16,14,
10/01/2017,22:00,14,14,16,13,16,15,17,19,18,15,13,
10/01/2017,23:00,16,14,15,15,15,15,16,18,16,16,12,
11/01/2017,00:00,,,,,,,,,,,,
11/01/2017,01:00,19,14,13,18,16,24,16,15,16,11,12,
11/01/2017,02:00,18,15,14,17,17,54,17,19,16,14,11,
11/01/2017,03:00,19,14,13,17,16,77,17,20,17,13,9,
11/01/2017,04:00,17,15,13,15,15,46,16,23,19,13,9,
11/01/2017,05:00,15,16,13,13,16,27,17,22,19,12,10,
11/01/2017,06:00,16,19,13,13,21,18,19,22,20,16,10,
11/01/2017,07:00,15,16,13,12,17,14,17,20,18,16,12,
11/01/2017,08:00,14,16,14,12,16,13,13,17,16,13,11,
11/01/2017,09:00,15,16,13,13,15,13,11,16,15,11,9,
11/01/2017,10:00,17,17,11,15,13,14,10,14,12,10,9,
11/01/2017,11:00,19,22,,16,12,16,9,12,10,10,9,
11/01/2017,12:00,20,22,9,17,12,15,10,12,11,6,9,
11/01/2017,13:00,20,26,9,21,11,13,8,11,10,16,8,
11/01/2017,14:00,19,24,9,21,9,12,9,10,8,7,9,
11/01/2017,15:00,16,23,8,18,10,12,9,9,9,7,9,
11/01/2017,16:00,15,21,8,17,10,11,9,10,10,9,9,
11/01/2017,17:00,15,20,11,16,11,11,10,11,11,9,7,
11/01/2017,18:00,13,19,15,14,12,10,11,12,12,11,9,
11/01/2017,19:00,13,16,16,12,11,11,12,12,11,45,9,
11/01/2017,20:00,14,13,19,12,11,11,12,13,11,433,11,
11/01/2017,21:00,15,12,23,13,11,11,12,11,10,202,11,
11/01/2017,22:00,16,13,17,14,10,11,11,12,11,78,11,
11/01/2017,23:00,16,14,15,15,11,11,12,12,11,414,10,
12/01/2017,00:00,,,,,,,,,,,,
12/01/2017,01:00,13,13,12,13,11,9,11,12,10,659,7,
12/01/2017,02:00,15,15,12,13,22,10,12,17,11,418,7,
12/01/2017,03:00,15,13,12,14,61,10,12,39,12,441,6,
12/01/2017,04:00,16,16,12,14,61,10,11,38,12,351,5,
12/01/2017,05:00,16,17,12,16,63,10,12,43,13,209,8,
12/01/2017,06:00,18,15,11,16,49,10,18,44,14,306,9,
12/01/2017,07:00,18,13,11,15,32,8,15,35,15,37,7,
12/01/2017,08:00,20,14,11,15,17,7,18,21,15,14,5,
12/01/2017,09:00,17,16,12,14,16,6,18,18,14,10,6,
12/01/2017,10:00,18,18,14,19,16,9,11,16,14,12,6,
12/01/2017,11:00,21,21,14,22,12,7,11,14,12,12,7,
12/01/2017,12:00,24,22,13,23,11,7,11,14,10,12,8,
12/01/2017,13:00,28,24,14,25,12,6,11,13,13,10,8,
12/01/2017,14:00,26,23,,28,10,6,9,12,9,11,9,
12/01/2017,15:00,24,24,16,25,10,4,9,11,9,7,10,
12/01/2017,16:00,22,25,15,23,9,6,8,8,8,8,5,
12/01/2017,17:00,22,25,15,20,6,5,7,7,7,6,4,
12/01/2017,18:00,21,24,18,19,6,5,7,7,7,5,4,
12/01/2017,19:00,19,22,20,21,8,6,8,8,9,10,5,
12/01/2017,20:00,19,20,30,20,8,6,9,9,9,21,5,
12/01/2017,21:00,18,19,33,17,8,6,10,12,9,36,4,
12/01/2017,22:00,18,19,26,15,8,6,10,11,9,30,5,
12/01/2017,23:00,18,17,14,17,10,7,10,10,10,73,4,
13/01/2017,00:00,,,,,,,,,,,,
13/01/2017,01:00,17,17,14,16,9,5,9,9,7,28,3,
13/01/2017,02:00,17,19,15,16,7,6,8,8,7,21,2,
13/01/2017,03:00,19,19,16,16,7,6,8,8,7,9,3,
13/01/2017,04:00,20,22,17,17,6,6,6,9,5,11,3,
13/01/2017,05:00,23,22,17,18,7,6,6,10,6,13,2,
13/01/2017,06:00,21,23,16,21,8,6,7,9,8,11,6,
13/01/2017,07:00,21,26,17,21,8,5,7,10,9,6,6,
13/01/2017,08:00,26,24,17,30,8,6,9,11,8,6,4,
13/01/2017,09:00,26,35,18,36,9,7,8,9,12,6,4,
13/01/2017,10:00,20,38,15,25,8,5,10,8,9,8,6,
13/01/2017,11:00,15,32,9,20,9,9,10,11,9,9,8,
13/01/2017,12:00,,29,11,19,13,10,13,14,13,10,8,
13/01/2017,13:00,,24,14,22,11,7,10,10,12,8,9,
13/01/2017,14:00,14,24,11,18,7,7,10,7,12,6,9,
13/01/2017,15:00,14,22,13,16,6,7,11,7,14,5,8,
13/01/2017,16:00,11,19,9,12,7,6,9,7,10,6,8,
13/01/2017,17:00,12,16,9,12,8,6,9,8,12,7,9,
13/01/2017,18:00,12,15,10,12,8,7,9,8,10,12,11,
13/01/2017,19:00,12,13,11,11,8,7,9,8,11,28,14,
13/01/2017,20:00,13,11,12,10,8,13,9,15,12,9,20,
13/01/2017,21:00,12,12,13,10,8,16,9,14,10,9,19,
13/01/2017,22:00,10,10,7,10,9,9,10,13,10,10,26,
13/01/2017,23:00,9,10,8,8,8,7,11,10,9,10,25,
14/01/2017,00:00,,,,,,,,,,,,
14/01/2017,01:00,8,10,5,9,11,7,11,11,10,39,26,
14/01/2017,02:00,8,11,6,10,10,10,11,12,10,38,29,
14/01/2017,03:00,8,11,7,9,11,11,11,16,10,22,27,
14/01/2017,04:00,7,12,7,9,10,13,12,12,11,34,19,
14/01/2017,05:00,10,13,11,10,12,13,11,20,11,36,17,
14/01/2017,06:00,11,21,15,12,11,11,12,28,12,14,13,
14/01/2017,07:00,11,15,13,13,10,9,12,12,14,11,18,
14/01/2017,08:00,12,13,11,13,8,8,10,11,11,9,23,
14/01/2017,09:00,12,14,10,13,7,26,8,8,7,6,20,
14/01/2017,10:00,13,16,11,14,5,15,7,7,7,5,13,
14/01/2017,11:00,15,15,17,14,5,9,6,6,10,5,15,
14/01/2017,12:00,20,14,14,19,6,9,6,7,16,6,15,
14/01/2017,13:00,17,16,15,22,7,10,10,8,19,7,9,
14/01/2017,14:00,17,19,17,19,12,9,13,13,17,11,3,
14/01/2017,15:00,18,20,20,18,11,10,11,13,12,10,1,
14/01/2017,16:00,19,20,22,18,8,10,9,9,11,9,1,
14/01/2017,17:00,21,18,26,19,10,11,11,13,16,12,2,
14/01/2017,18:00,22,18,29,20,12,12,13,14,17,13,2,
14/01/2017,19:00,23,18,31,20,13,12,13,15,15,14,1,
14/01/2017,20:00,25,17,36,20,16,12,17,18,18,17,1,
14/01/2017,21:00,25,17,26,22,16,12,17,20,18,18,2,
14/01/2017,22:00,23,17,12,22,17,12,19,34,18,14,2,
14/01/2017,23:00,20,18,12,19,18,14,18,34,46,14,2,
15/01/2017,00:00,,,,,,,,,,,,
15/01/2017,01:00,14,18,13,18,16,10,19,19,19,12,3,
15/01/2017,02:00,15,9,14,14,15,12,18,18,21,14,3,
15/01/2017,03:00,10,10,17,12,15,12,17,18,17,16,3,
15/01/2017,04:00,9,10,23,12,14,12,16,17,15,15,3,
15/01/2017,05:00,12,10,22,11,13,12,14,20,14,14,3,
15/01/2017,06:00,5,10,19,6,11,13,13,13,12,12,4,
15/01/2017,07:00,13,11,14,9,8,17,10,9,9,10,3,
15/01/2017,08:00,12,12,13,9,7,16,10,10,9,10,4,
15/01/2017,09:00,13,11,12,9,8,15,10,12,10,8,4,
15/01/2017,10:00,30,12,14,9,8,13,9,10,7,7,4,
15/01/2017,11:00,26,19,14,12,7,11,8,9,7,5,5,
15/01/2017,12:00,21,11,14,15,7,14,8,8,8,6,5,
15/01/2017,13:00,11,10,14,13,7,15,7,7,9,6,5,
15/01/2017,14:00,10,16,17,11,6,16,7,7,9,7,5,
15/01/2017,15:00,19,11,17,15,7,18,9,9,11,7,5,
15/01/2017,16:00,15,11,17,17,6,16,10,7,10,6,4,
15/01/2017,17:00,14,10,17,11,7,20,9,8,10,7,4,
15/01/2017,18:00,15,6,17,10,7,28,9,8,11,7,5,
15/01/2017,19:00,16,8,16,14,9,36,11,11,14,9,6,
15/01/2017,20:00,16,7,15,7,13,42,12,14,12,14,6,
15/01/2017,21:00,9,4,13,10,11,50,11,12,11,13,6,
15/01/2017,22:00,10,5,11,10,9,59,10,10,9,10,5,
15/01/2017,23:00,9,5,10,7,7,52,8,8,7,9,4,
16/01/2017,00:00,,,,,,,,,,,,
16/01/2017,01:00,4,5,8,5,7,14,9,7,10,8,4,
16/01/2017,02:00,,5,9,7,8,12,10,11,10,14,3,
16/01/2017,03:00,5,6,9,5,8,12,9,9,9,9,5,
16/01/2017,04:00,5,7,7,4,8,17,8,8,8,8,6,
16/01/2017,05:00,8,6,7,4,7,17,8,8,11,8,7,
16/01/2017,06:00,6,6,7,5,6,12,9,7,8,8,6,
16/01/2017,07:00,8,6,6,7,7,9,9,9,10,7,2,
16/01/2017,08:00,9,7,6,8,8,9,8,12,9,8,3,
16/01/2017,09:00,11,10,,10,7,10,8,11,9,8,3,
16/01/2017,10:00,10,9,4,11,6,10,7,9,8,8,4,
16/01/2017,11:00,11,10,5,10,6,10,7,8,,6,4,
16/01/2017,12:00,11,13,5,11,5,37,6,7,7,6,5,
16/01/2017,13:00,11,12,6,11,5,62,7,7,7,4,3,
16/01/2017,14:00,12,12,5,12,6,20,6,8,7,5,4,
16/01/2017,15:00,12,13,5,12,6,30,6,8,7,5,4,
16/01/2017,16:00,12,13,5,12,5,11,6,7,6,5,4,
16/01/2017,17:00,13,12,5,12,5,7,5,6,6,4,4,
16/01/2017,18:00,11,12,5,13,5,7,6,7,7,5,6,
16/01/2017,19:00,10,14,5,13,6,10,7,9,10,6,7,
16/01/2017,20:00,10,13,5,11,8,19,9,10,11,8,7,
16/01/2017,21:00,7,11,5,9,10,22,10,13,13,10,6,
16/01/2017,22:00,7,10,4,8,11,22,10,13,12,11,7,
16/01/2017,23:00,7,9,4,9,10,22,9,13,13,11,8,
17/01/2017,00:00,,,,,,,,,,,,
17/01/2017,01:00,7,7,6,14,10,16,8,10,8,8,6,
17/01/2017,02:00,7,7,6,11,9,20,10,12,10,10,5,
17/01/2017,03:00,11,7,6,11,12,23,10,13,10,11,5,
17/01/2017,04:00,14,8,6,12,10,24,11,13,10,11,5,
17/01/2017,05:00,14,11,6,10,10,24,10,13,10,11,5,
17/01/2017,06:00,17,12,8,11,10,23,11,18,11,11,5,
17/01/2017,07:00,19,11,8,19,12,20,11,14,12,12,4,
17/01/2017,08:00,12,9,9,16,14,19,12,16,13,13,5,
17/01/2017,09:00,15,9,9,12,13,19,11,18,15,12,6,
17/01/2017,10:00,27,10,8,20,13,18,11,17,14,12,6,
17/01/2017,11:00,13,11,7,29,13,19,11,15,13,11,8,
17/01/2017,12:00,10,13,7,19,14,16,13,14,14,11,8,
17/01/2017,13:00,10,20,6,16,14,17,12,14,13,11,8,
17/01/2017,14:00,11,24,7,15,13,16,11,14,11,10,8,
17/01/2017,15:00,9,14,7,11,12,19,11,15,12,9,10,
17/01/2017,16:00,9,12,7,10,13,23,13,14,15,10,9,
17/01/2017,17:00,10,11,7,10,14,22,14,15,16,12,10,
17/01/2017,18:00,10,10,7,10,15,27,15,16,22,15,12,
17/01/2017,19:00,10,10,8,9,15,28,15,16,15,16,12,
17/01/2017,20:00,11,8,8,9,14,26,14,15,14,15,12,
17/01/2017,21:00,10,8,9,9,14,25,14,16,14,29,11,
17/01/2017,22:00,9,8,10,10,13,20,14,15,13,14,12,
17/01/2017,23:00,10,8,10,10,13,22,14,15,13,13,10,
18/01/2017,00:00,,,,,,,,,,,,
18/01/2017,01:00,10,11,8,11,14,14,13,13,13,14,12,
18/01/2017,02:00,10,12,10,10,14,18,14,16,16,17,12,
18/01/2017,03:00,10,12,10,11,14,18,14,16,15,77,10,
18/01/2017,04:00,10,12,11,9,14,18,14,20,14,88,10,
18/01/2017,05:00,12,14,12,9,14,17,15,18,15,17,10,
18/01/2017,06:00,15,12,12,11,15,16,14,18,15,17,11,
18/01/2017,07:00,14,12,11,11,14,13,15,22,17,15,11,
18/01/2017,08:00,15,13,11,10,17,11,15,17,16,14,13,
18/01/2017,09:00,13,14,10,10,18,10,16,15,14,13,13,
18/01/2017,10:00,13,15,11,12,14,12,18,17,14,11,14,
18/01/2017,11:00,15,16,14,15,16,17,17,18,15,11,15,
18/01/2017,12:00,17,18,16,17,17,17,15,16,14,12,15,
18/01/2017,13:00,20,18,17,17,14,13,14,14,14,13,14,
18/01/2017,14:00,19,17,18,23,15,15,14,14,12,14,15,
18/01/2017,15:00,19,17,21,21,15,13,13,14,13,12,14,
18/01/2017,16:00,21,19,22,21,14,13,12,14,13,13,12,
18/01/2017,17:00,24,23,24,23,13,14,13,13,12,12,11,
18/01/2017,18:00,26,21,27,24,13,19,12,13,13,13,10,
18/01/2017,19:00,26,21,38,24,14,15,13,15,14,15,11,
18/01/2017,20:00,27,22,40,25,14,15,14,15,16,16,11,
18/01/2017,21:00,25,24,19,24,14,12,14,16,15,16,11,
18/01/2017,22:00,24,24,17,24,16,13,15,19,15,20,12,
18/01/2017,23:00,25,23,16,26,17,12,15,23,14,16,12,
19/01/2017,00:00,,,,,,,,,,,,
19/01/2017,01:00,23,22,12,22,14,9,14,14,12,28,12,
19/01/2017,02:00,26,23,13,22,15,11,17,14,12,18,10,
19/01/2017,03:00,26,25,13,25,13,11,14,13,13,13,8,
19/01/2017,04:00,52,26,13,39,13,11,14,20,13,17,8,
19/01/2017,05:00,64,41,14,57,15,11,15,20,15,15,8,
19/01/2017,06:00,64,43,15,53,17,10,16,17,17,13,10,
19/01/2017,07:00,56,34,25,33,14,9,15,19,15,13,12,
19/01/2017,08:00,48,19,47,37,14,8,14,17,15,14,12,
19/01/2017,09:00,52,16,46,41,15,,14,21,17,14,9,
19/01/2017,10:00,34,17,45,28,15,,15,18,17,14,10,
19/01/2017,11:00,31,20,41,27,15,11,15,24,16,14,10,
19/01/2017,12:00,38,34,43,34,15,7,16,18,15,14,9,
19/01/2017,13:00,34,39,47,33,16,8,14,19,15,14,9,
19/01/2017,14:00,32,51,48,32,26,7,18,26,21,20,8,
19/01/2017,15:00,33,37,48,34,23,9,30,22,18,17,7,
19/01/2017,16:00,35,43,44,36,23,10,20,23,18,19,7,
19/01/2017,17:00,35,40,44,36,17,9,15,16,16,18,8,
19/01/2017,18:00,32,41,44,31,16,10,15,16,16,18,9,
19/01/2017,19:00,41,38,46,38,17,9,15,16,15,17,10,
19/01/2017,20:00,42,38,44,39,16,9,14,16,14,16,10,
19/01/2017,21:00,43,37,44,39,15,8,14,16,14,15,11,
19/01/2017,22:00,42,36,43,37,13,11,14,15,13,15,13,
19/01/2017,23:00,41,36,40,35,12,9,13,14,12,14,12,
20/01/2017,00:00,,,,,,,,,,,,
20/01/2017,01:00,77,30,35,34,13,6,12,13,10,12,10,
20/01/2017,02:00,44,37,41,40,12,7,12,13,11,13,10,
20/01/2017,03:00,45,37,39,40,12,7,13,13,13,13,9,
20/01/2017,04:00,49,37,38,39,12,7,14,13,14,12,9,
20/01/2017,05:00,51,38,39,42,12,7,15,15,14,14,8,
20/01/2017,06:00,50,41,39,49,14,7,14,17,14,13,15,
20/01/2017,07:00,53,44,39,47,13,7,13,17,13,13,13,
20/01/2017,08:00,50,39,36,43,13,6,12,15,13,13,13,
20/01/2017,09:00,42,34,26,40,13,6,13,15,14,13,9,
20/01/2017,10:00,30,26,25,30,14,6,14,,14,13,10,
20/01/2017,11:00,30,28,29,26,14,6,14,,12,12,9,
20/01/2017,12:00,36,31,28,27,13,5,14,13,13,11,8,
20/01/2017,13:00,34,34,31,36,12,5,13,9,11,8,8,
20/01/2017,14:00,30,39,37,31,9,6,9,7,9,6,8,
20/01/2017,15:00,35,36,42,36,8,6,7,5,8,7,8,
20/01/2017,16:00,40,35,41,39,8,5,8,6,9,7,8,
20/01/2017,17:00,52,39,42,50,10,6,8,6,10,8,7,
20/01/2017,18:00,64,46,37,59,8,7,10,6,8,8,7,
20/01/2017,19:00,64,57,43,57,9,7,9,9,9,9,8,
20/01/2017,20:00,88,50,137,61,9,7,9,8,9,10,10,
20/01/2017,21:00,63,60,540,58,10,6,10,11,10,11,11,
20/01/2017,22:00,54,66,25,53,10,6,10,12,10,43,12,
20/01/2017,23:00,62,67,22,52,10,6,10,9,9,50,11,
21/01/2017,00:00,,,,,,,,,,,,
21/01/2017,01:00,76,59,14,60,18,5,8,9,8,8,9,
21/01/2017,02:00,77,40,11,60,12,6,12,18,8,8,10,
21/01/2017,03:00,69,19,9,59,10,9,12,14,9,7,10,
21/01/2017,04:00,46,23,10,36,8,14,12,15,9,8,9,
21/01/2017,05:00,,29,12,14,10,13,12,21,9,8,10,
21/01/2017,06:00,,16,12,12,14,10,13,13,11,10,9,